This is the latest recevied weather packets stored in our database for station/object KG4QXF. If no packets are shown the sender has not sent any weather packets the latest 1 day(s).
| Time | Temp. | Humidity | Pressure | Rain* | Wind** | Luminosity | Snow |
|---|---|---|---|---|---|---|---|
| 1777991835 | 23.33° C | 61% | 1020.5 hPa | 0 mm | 0 m/s | - | - |
| 1777991532 | 23.33° C | 60% | 1020.4 hPa | 0 mm | 0.45 m/s, 331° | - | - |
| 1777991229 | 23.33° C | 60% | 1020.2 hPa | 0 mm | 0.45 m/s, 71° | - | - |
| 1777990927 | 23.33° C | 61% | 1020.3 hPa | 0 mm | 0.89 m/s, 113° | - | - |
| 1777990624 | 22.78° C | 62% | 1020.3 hPa | 0 mm | 0.45 m/s, 21° | - | - |
| 1777990321 | 22.78° C | 62% | 1020.2 hPa | 0 mm | 0.89 m/s, 145° | - | - |
| 1777990017 | 22.78° C | 64% | 1020 hPa | 0 mm | 0.45 m/s, 178° | - | - |
| 1777989714 | 22.22° C | 64% | 1020.3 hPa | 0 mm | 0.45 m/s, 60° | - | - |
| 1777989410 | 22.22° C | 64% | 1020.2 hPa | 0 mm | 0.89 m/s, 5° | - | - |
| 1777989107 | 22.22° C | 64% | 1020.3 hPa | 0 mm | 0.89 m/s, 84° | - | - |
| 1777988803 | 22.22° C | 65% | 1020.3 hPa | 0 mm | 0.89 m/s, 171° | - | - |
| 1777988501 | 21.67° C | 66% | 1020 hPa | 0 mm | 0 m/s | - | - |
| 1777988197 | 21.67° C | 67% | 1020.1 hPa | 0 mm | 0.45 m/s, 292° | - | - |
| 1777987893 | 21.67° C | 68% | 1020.2 hPa | 0 mm | 0.45 m/s, 308° | - | - |
| 1777987589 | 21.67° C | 68% | 1020.1 hPa | 0 mm | 0 m/s | - | - |
| 1777987287 | 21.67° C | 67% | 1019.9 hPa | 0 mm | 0.89 m/s, 136° | - | - |
| 1777986984 | 21.11° C | 67% | 1019.9 hPa | 0 mm | 0 m/s | - | - |
| 1777986682 | 21.11° C | 67% | 1020 hPa | 0 mm | 0 m/s | - | - |
| 1777986380 | 21.11° C | 68% | 1019.9 hPa | 0 mm | 0 m/s | - | - |
| 1777986078 | 21.11° C | 68% | 1019.7 hPa | 0 mm | 0 m/s | - | - |
| 1777985774 | 20.56° C | 68% | 1019.9 hPa | 0 mm | 0.45 m/s, 144° | - | - |
| 1777985471 | 20.56° C | 69% | 1019.9 hPa | 0 mm | 0 m/s | - | - |
| 1777985167 | 20.56° C | 68% | 1019.8 hPa | 0 mm | 0.45 m/s, 56° | - | - |
| 1777984864 | 20.56° C | 69% | 1020 hPa | 0 mm | 0.89 m/s, 97° | - | - |
| 1777984560 | 20.56° C | 71% | 1020.1 hPa | 0 mm | 0.45 m/s, 175° | - | - |
* Rain latest hour (hover to see other rain measurements)
** Current wind speed in m/s (hover to see current wind gust speed)